sat.trackr.live / text

‹ back to catalog

JILIN-1 GAOFEN 03D09

NORAD 53445 · 2022-098B

PAYLOAD ACTIVE UNKNOWN

§ Identity

Operator
Country
PRC
Launch date
2022-08-10
Launch site
TAISC
Launch vehicle
Mass (kg)
RCS (m²)

External: N2YO · Heavens-Above · Gunter

§ Orbital elements

Epoch: 2026-05-25T04:32:58.281216Z

Period
92.12 min
Inclination
97.5560°
Eccentricity
0.0003493
Mean motion
15.63242213 rev/d
Perigee alt
375.9 km
Apogee alt
380.7 km
Semi-major
6,756.4 km
B*
6.5800e-4
RAAN
273.2112°
Arg perigee
109.6499°
Mean anomaly
250.5137°
Rev number
21,103

§ Raw data

JILIN-1 GAOFEN 03D091 53445U 22098B   26145.18956344  .00060448  00000+0  65800-3 0  99932 53445  97.5560 273.2112 0003493 109.6499 250.5137 15.63242213211039

JSON: /api/v1/satellites/53445 · /tle

For live sub-satellite position, see the globe view (requires WebGL).

§ Visibility from observer

Set your observer location to see the next 7 days of passes ≥ 10°. The values pass through the URL so the page stays shareable.

No JS? Fill the form by hand. The geolocation button needs JavaScript.